• En España
  • Lista de países
  • Para 7 días
  • Temperatura del agua
  • Mapa Satelital
  • El tiempo en el mapa
  • Informadores
  • user-avatar
    Iniciar sesión

    Tiempo cada hora Bukreevo

    Hoy, 19 Septiembre, Miércoles

    Tiempo Temperatura Precipitaciones Viento Presión Humedad
    00:00 +11°C° 0 mm 3 mps 749 mmHg 89%
    01:00 +12°C° 0 mm 2 mps 750 mmHg 90%
    02:00 +12°C° 0 mm 2 mps 750 mmHg 92%
    03:00 +10°C° 0 mm 2 mps 750 mmHg 92%
    04:00 +10°C° 0 mm 2 mps 750 mmHg 92%
    05:00 +10°C° 0 mm 2 mps 750 mmHg 92%
    06:00 +12°C° 0 mm 2 mps 750 mmHg 87%
    07:00 +13°C° 0 mm 3 mps 750 mmHg 82%
    08:00 +14°C° 0 mm 3 mps 750 mmHg 76%
    09:00 +17°C° 0 mm 3 mps 750 mmHg 71%
    10:00 +19°C° 0 mm 4 mps 750 mmHg 67%
    11:00 +21°C° 0 mm 4 mps 750 mmHg 62%
    12:00 +21°C° 0 mm 5 mps 750 mmHg 60%
    13:00 +22°C° 0 mm 5 mps 750 mmHg 58%
    14:00 +23°C° 0 mm 5 mps 749 mmHg 57%
    15:00 +22°C° 0 mm 4 mps 749 mmHg 61%
    16:00 +21°C° 0 mm 4 mps 749 mmHg 66%
    17:00 +20°C° 0 mm 3 mps 749 mmHg 70%
    18:00 +19°C° 0 mm 3 mps 749 mmHg 74%
    19:00 +18°C° 0 mm 3 mps 749 mmHg 78%
    20:00 +17°C° 0 mm 3 mps 749 mmHg 83%
    21:00 +16°C° 0 mm 3 mps 749 mmHg 85%
    22:00 +16°C° 0 mm 3 mps 749 mmHg 87%
    23:00 +16°C° 0 mm 3 mps 749 mmHg 89%

    Mañana, 20 Septiembre, Jueves

    Tiempo Temperatura Precipitaciones Viento Presión Humedad
    00:00 +14°C° 0 mm 3 mps 749 mmHg 90%
    01:00 +14°C° 0 mm 3 mps 749 mmHg 91%
    02:00 +14°C° 0 mm 3 mps 749 mmHg 92%
    03:00 +14°C° 0 mm 3 mps 749 mmHg 93%
    04:00 +14°C° 0 mm 3 mps 749 mmHg 93%
    05:00 +14°C° 0 mm 3 mps 749 mmHg 94%
    06:00 +16°C° 0 mm 3 mps 749 mmHg 89%
    07:00 +17°C° 0 mm 4 mps 749 mmHg 84%
    08:00 +19°C° 0 mm 4 mps 749 mmHg 79%
    09:00 +20°C° 0 mm 4 mps 749 mmHg 73%
    10:00 +22°C° 0 mm 4 mps 749 mmHg 68%
    11:00 +23°C° 0 mm 5 mps 749 mmHg 62%
    12:00 +25°C° 0 mm 5 mps 749 mmHg 60%
    13:00 +26°C° 0 mm 5 mps 749 mmHg 59%
    14:00 +26°C° 0 mm 5 mps 749 mmHg 57%
    15:00 +25°C° 0 mm 4 mps 749 mmHg 62%
    16:00 +24°C° 0 mm 3 mps 748 mmHg 67%
    17:00 +22°C° 0 mm 3 mps 748 mmHg 72%
    18:00 +21°C° 0 mm 3 mps 749 mmHg 77%
    19:00 +20°C° 0 mm 2 mps 749 mmHg 81%
    20:00 +19°C° 0 mm 2 mps 749 mmHg 86%
    21:00 +18°C° 0 mm 2 mps 749 mmHg 88%
    22:00 +18°C° 0 mm 2 mps 749 mmHg 89%
    23:00 +17°C° 0 mm 2 mps 750 mmHg 91%

    Pasado mañana, 21 Septiembre, Viernes

    Tiempo Temperatura Precipitaciones Viento Presión Humedad
    00:00 +17°C° 0 mm 2 mps 750 mmHg 91%
    01:00 +16°C° 0 mm 1 mps 750 mmHg 91%
    02:00 +16°C° 0 mm 1 mps 750 mmHg 91%
    03:00 +16°C° 0 mm 1 mps 750 mmHg 92%
    04:00 +15°C° 0 mm 1 mps 750 mmHg 92%
    05:00 +15°C° 0 mm 1 mps 750 mmHg 92%
    06:00 +16°C° 0 mm 1 mps 751 mmHg 87%
    07:00 +18°C° 0 mm 1 mps 751 mmHg 82%
    08:00 +18°C° 0 mm 0 mps 751 mmHg 77%
    09:00 +19°C° 0 mm 0 mps 751 mmHg 70%
    10:00 +21°C° 0 mm 0 mps 751 mmHg 63%
    11:00 +23°C° 0 mm 0 mps 751 mmHg 56%
    12:00 +25°C° 0 mm 1 mps 751 mmHg 53%
    13:00 +26°C° 0 mm 1 mps 751 mmHg 49%
    14:00 +26°C° 0 mm 1 mps 751 mmHg 46%
    15:00 +23°C° 0 mm 0 mps 751 mmHg 50%
    16:00 +22°C° 0 mm 0 mps 751 mmHg 54%
    17:00 +21°C° 0 mm 0 mps 751 mmHg 58%
    18:00 +22°C° 0 mm 1 mps 751 mmHg 60%
    19:00 +21°C° 0 mm 1 mps 751 mmHg 62%
    20:00 +20°C° 0 mm 1 mps 751 mmHg 64%
    21:00 +19°C° 0 mm 2 mps 751 mmHg 66%
    22:00 +18°C° 0 mm 2 mps 751 mmHg 68%
    23:00 +18°C° 0 mm 2 mps 751 mmHg 70%

    22 Septiembre, Sábado

    Tiempo Temperatura Precipitaciones Viento Presión Humedad
    00:00 +17°C° 0 mm 2 mps 751 mmHg 71%
    01:00 +17°C° 0 mm 2 mps 751 mmHg 73%
    02:00 +17°C° 0 mm 2 mps 751 mmHg 74%
    03:00 +16°C° 0 mm 2 mps 751 mmHg 75%
    04:00 +16°C° 0 mm 2 mps 750 mmHg 76%
    05:00 +16°C° 0 mm 2 mps 750 mmHg 77%
    06:00 +17°C° 0 mm 3 mps 750 mmHg 74%
    07:00 +18°C° 0 mm 3 mps 750 mmHg 70%
    08:00 +20°C° 0 mm 3 mps 750 mmHg 67%
    09:00 +21°C° 0 mm 4 mps 750 mmHg 62%
    10:00 +23°C° 0 mm 4 mps 750 mmHg 58%
    11:00 +26°C° 0 mm 4 mps 749 mmHg 54%
    12:00 +26°C° 0 mm 4 mps 749 mmHg 52%
    13:00 +27°C° 0 mm 5 mps 749 mmHg 50%
    14:00 +27°C° 0 mm 5 mps 748 mmHg 48%
    15:00 +26°C° 0 mm 4 mps 748 mmHg 52%
    16:00 +25°C° 0 mm 3 mps 748 mmHg 57%
    17:00 +24°C° 0 mm 3 mps 747 mmHg 62%
    18:00 +22°C° 0 mm 3 mps 747 mmHg 63%
    19:00 +20°C° 0 mm 3 mps 747 mmHg 65%
    20:00 +19°C° 0 mm 3 mps 747 mmHg 66%
    21:00 +19°C° 0 mm 3 mps 747 mmHg 67%
    22:00 +19°C° 0 mm 3 mps 747 mmHg 67%
    23:00 +18°C° 0 mm 3 mps 747 mmHg 68%

    23 Septiembre, Domingo

    Tiempo Temperatura Precipitaciones Viento Presión Humedad
    00:00 +18°C° 0 mm 3 mps 746 mmHg 68%
    01:00 +17°C° 0 mm 3 mps 746 mmHg 68%
    02:00 +17°C° 0 mm 3 mps 746 mmHg 69%
    03:00 +17°C° 0 mm 3 mps 746 mmHg 69%
    04:00 +17°C° 0 mm 3 mps 745 mmHg 69%
    05:00 +16°C° 0 mm 3 mps 745 mmHg 70%
    06:00 +18°C° 0 mm 3 mps 745 mmHg 66%
    07:00 +19°C° 0 mm 4 mps 744 mmHg 63%
    08:00 +20°C° 0 mm 4 mps 744 mmHg 60%
    09:00 +21°C° 0 mm 4 mps 744 mmHg 56%
    10:00 +23°C° 0 mm 5 mps 744 mmHg 51%
    11:00 +25°C° 0 mm 5 mps 744 mmHg 47%
    12:00 +25°C° 0 mm 5 mps 743 mmHg 49%
    13:00 +23°C° 0 mm 4 mps 743 mmHg 51%
    14:00 +24°C° 0 mm 3 mps 743 mmHg 54%
    15:00 +21°C° 0.3 mm 4 mps 743 mmHg 61%
    16:00 +19°C° 0.3 mm 4 mps 743 mmHg 68%
    17:00 +18°C° 0.3 mm 4 mps 743 mmHg 75%
    18:00 +15°C° 1 mm 5 mps 744 mmHg 80%
    19:00 +13°C° 1 mm 6 mps 744 mmHg 85%
    20:00 +11°C° 1 mm 6 mps 744 mmHg 90%
    21:00 +10°C° 0.3 mm 6 mps 744 mmHg 89%
    22:00 +10°C° 0.3 mm 6 mps 745 mmHg 88%
    23:00 +10°C° 0.3 mm 6 mps 745 mmHg 88%

    24 Septiembre, Lunes

    Tiempo Temperatura Precipitaciones Viento Presión Humedad
    00:00 +9°C° 0 mm 5 mps 745 mmHg 88%
    01:00 +9°C° 0 mm 5 mps 745 mmHg 87%
    02:00 +9°C° 0 mm 5 mps 745 mmHg 87%
    03:00 +9°C° 0 mm 5 mps 746 mmHg 87%
    04:00 +9°C° 0 mm 5 mps 746 mmHg 88%
    05:00 +9°C° 0 mm 5 mps 746 mmHg 88%
    06:00 +10°C° 0 mm 4 mps 746 mmHg 88%
    07:00 +10°C° 0 mm 4 mps 746 mmHg 87%
    08:00 +11°C° 0 mm 4 mps 747 mmHg 86%
    09:00 +12°C° 0 mm 4 mps 747 mmHg 83%
    10:00 +13°C° 0 mm 4 mps 747 mmHg 81%
    11:00 +14°C° 0 mm 4 mps 746 mmHg 78%
    12:00 +16°C° 0 mm 3 mps 746 mmHg 75%
    13:00 +17°C° 0 mm 3 mps 746 mmHg 72%
    14:00 +18°C° 0 mm 2 mps 746 mmHg 69%
    15:00 +18°C° 0 mm 2 mps 746 mmHg 73%
    16:00 +17°C° 0 mm 2 mps 745 mmHg 77%
    17:00 +18°C° 0 mm 1 mps 745 mmHg 80%
    18:00 +16°C° 0 mm 2 mps 745 mmHg 84%
    19:00 +15°C° 0 mm 2 mps 745 mmHg 88%
    20:00 +15°C° 0 mm 2 mps 745 mmHg 92%
    21:00 +15°C° 0 mm 1 mps 745 mmHg 92%
    22:00 +14°C° 0 mm 1 mps 745 mmHg 92%
    23:00 +14°C° 0 mm 1 mps 745 mmHg 92%
    Mostrar más